Regional Weather Roundup
Issued by NWS

Home | Current Version | Previous Version | Graphics & Text | Print | Product List | Glossary On
Versions: 1 2 3 4 5 6 7 8 9 10 11 12 13 14 15 16 17 18 19 20 21 22 23 24 25 26 27 28 29 30 31 32 33 34 35 36 37 38 39 40 41 42 43 44 45 46 47 48 49 50
000
ASUS45 KBOU 092010
RWRCO

WEATHER ROUNDUP FOR COLORADO
NATIONAL WEATHER SERVICE DENVER/BOULDER CO
200 PM MDT WED JUL 09 2014

NOTE: "FAIR" INDICATES FEW OR NO CLOUDS BELOW 12000 FEET WITH NO
SIGNIFICANT WEATHER AND/OR OBSTRUCTIONS TO VISIBILITY.

COZ001>005-013-030-031-092100-
...NORTHWEST COLORADO...

CITY           SKY/WX    TMP DP  RH WIND       PRES   REMARKS
CRAIG          SUNNY     86  46  24 W9        30.14F
HAYDEN         SUNNY     84  39  20 S5        30.18F
MEEKER         MOSUNNY   83  45  26 S8        30.18F
MOUNT WERNER   SUNNY     70  34  26 SW7       30.54F
STEAMBOAT SPGS SUNNY     82  43  25 S5        30.20F
WALDEN         MOSUNNY   81  30  16 CALM      30.28F
$$

COZ006>008-011-092100-
...WEST CENTRAL VALLEYS...

CITY           SKY/WX    TMP DP  RH WIND       PRES   REMARKS
GRAND JUNCTION MOSUNNY   89  48  24 SW7       30.06F
MONTROSE       MOSUNNY   88  44  21 N6        30.15F
EAGLE          MOSUNNY   84  43  23 SW13      30.19
RIFLE          MOSUNNY   90  41  18 VRB6      30.10F
DELTA          MOSUNNY   92  44  18 S6        30.10F
NUCLA          MOSUNNY   88  43  20 N9        30.19F
$$

COZ017>023-064>068-092100-
...SOUTHWEST COLORADO...

CITY           SKY/WX    TMP DP  RH WIND       PRES   REMARKS
DURANGO        MOSUNNY   83  45  26 W10G21    30.22F
CORTEZ         SUNNY     85  48  27 SW9G17    30.17F
PAGOSA SPRINGS MOSUNNY   79  38  23 S8        30.28F THUNDER
TELLURIDE      PTSUNNY   72  43  35 CALM      30.38F THUNDER
WOLF CREEK PAS NOT AVBL
$$

COZ009-010-012-014-032>034-037-058>063-092100-
...CENTRAL COLORADO...

CITY           SKY/WX    TMP DP  RH WIND       PRES   REMARKS
ASPEN          MOSUNNY   81  40  23 N9        30.28F
BUENA VISTA    PTSUNNY   79  26  14 SE5       30.30R
COPPER MTN     MOSUNNY   72  30  21 W9G31     30.64F
BERTHOUD PASS  FAIR      57  43  58 MISG      30.69F
COTTONWOOD PAS CLOUDY    73  27  17 N3        30.45S
GUNNISON       NOT AVBL
KREMMLING      SUNNY     82  34  17 SW6       30.24F
LEADVILLE      PTSUNNY   70  32  24 VRB5      30.44F
MONARCH PASS   TSTM      50  36  57 E12       30.74S
SALIDA         PTSUNNY   75  39  26 W18       30.33F
SUNLIGHT       MOSUNNY   70  45  40 W3        30.57F
WILKERSON PASS PTSUNNY   61  34  36 SE7       30.60F
$$

COZ069>075-092100-
...SAN LUIS VALLEY/SANGRE DE CRISTO MOUNTAINS...

CITY           SKY/WX    TMP DP  RH WIND       PRES   REMARKS
ALAMOSA        SUNNY     78  46  32 VRB6      30.28F
LA VETA PASS   MOSUNNY   68  36  30 S7        30.50S
SAGUACHE       NOT AVBL
$$

COZ035-036-038>040-092100-
...NORTHERN COLORADO FRONT RANGE...

CITY           SKY/WX    TMP DP  RH WIND       PRES   REMARKS
DENVER INTL AP PTSUNNY   93  47  20 SE15G24   30.05F
DMNS CITY PARK   N/A     90  40  17 W6G14     30.03F
AURORA         PTSUNNY   89  46  22 E10       30.07F
FRONT RANGE AP NOT AVBL
ERIE MUNI ARPT MOSUNNY   89  51  26 N9        30.04F
BOULDER MUN AP MOSUNNY   82  59  44 NW8       30.06F
CENTENNIAL     MOSUNNY   91  32  12 NE8       30.08F
BROOMFIELD     PTSUNNY   88  57  35 NW14      30.09F
FORT COLLINS   MOSUNNY   86  59  39 E7        30.04F
LONGMONT         N/A    N/A N/A N/A MISG        N/A
$$

COZ041-046-047-076>085-087-088-092100-
...PIKES PEAK/PALMER DIVIDE AND SOUTHERN FOOTHILLS...

CITY           SKY/WX    TMP DP  RH WIND       PRES   REMARKS
COLO. SPRINGS  PTSUNNY   83  46  27 S14       30.15F
A. F. ACADEMY  MOSUNNY   81  46  28 SW10      30.17F
ELLICOTT       NOT AVBL
FALCON         MOSUNNY   87  39  18 S12G17    30.21F
FORT CARSON    PTSUNNY   82  49  31 SE10      30.12F
LIMON          SUNNY     88  46  23 SE15      30.09F
MONUMENT HILL  MOSUNNY   82  36  18 S9G18     30.19F
TRINIDAD       MOSUNNY   90  37  15 SE14      30.12F
$$

COZ042>045-048>051-090-091-092100-
...NORTHEAST COLORADO...

CITY           SKY/WX    TMP DP  RH WIND       PRES   REMARKS
GREELEY ARPT   MOSUNNY   84  61  45 E9        30.04F
AKRON          SUNNY     87  55  33 S25       30.03F
BURLINGTON     PTSUNNY   86  58  38 SE20      30.06F
WRAY           MOSUNNY   92  54  26 S15G22    29.99F
STERLING       SUNNY     93  59  31 S15       29.98F
HOLYOKE        MOSUNNY   88  59  37 S17G24    29.98F
FORT MORGAN    SUNNY     90  52  27 SE15      30.02F
$$

COZ086-089-092>099-092100-
...SOUTHEAST COLORADO...

CITY           SKY/WX    TMP DP  RH WIND       PRES   REMARKS
PUEBLO         PTSUNNY   85  57  38 SE9       30.04F
LA JUNTA       PTSUNNY   95  44  17 SE14G22   30.01F
LAMAR          MOSUNNY   93  51  23 S14G23    29.99F
SPRINGFIELD      N/A     91  54  28 SE16G28   30.06F
$$


USA.gov is the U.S. government's official web portal to all federal, state and local government web resources and services.